FREGAT R/B, 45609

Orbit data source: Space-Track

FREGAT R/B, 45609 is space debris in HEO originally from a launch on Fri, 22 May 2020 UTC launched from the Plesetsk Missile And Space Complex (PKMTR). Debris objects in space refer to the collection of defunct objects orbiting the Earth. Examples of debris include non-operational satellites, rocket bodies, and fragments generated from explosions, collisions, or faulty payload assembly.

Loading next visibility...
FREGAT R/B details
Identifier
45609, 2020-031B
Orbit
HEO
Last TLE update3 days ago
Origin
Flag of CISLavochkin (CIS)
ManufacturerLavochkin
MissionSpacecraft
Bus & MotorFREGAT, Unknown motor
Mass1,000 kg wet, 1,000 kg dry
Launch date (UTC)
2020-05-22 (5 years ago)
Launch vehicleUnknown
Launch site
Plesetsk Missile And Space Complex (PKMTR)
Object type
Payload
Rocket body
Debris
Shape & HBRIrr, 3.48 m
Radar Cross Section12.110 m², Large (>1 m²)

Expand to show TLE details & history

TLE from 3 days ago
0 FREGAT R/B
1 45609U 20031B   24358.38877170 -.00000523  00000-0  00000-0 0  9994
2 45609  63.6377 129.5711 6867369 258.9966  22.9380  2.01474801 33764
Epoch: 2024-12-23T09:19Z
Definitive object data (Epoch: 2024-12-23T09:19:49.874Z)
Latitude-0.00012°
Longitude-102.81974°
Altitude9,760.539 km
Speed5.861 km/s
True Right ascension08h 38m 11s
True Declination0° 00' 00"
Sunlit
Object was in daylight at TLE epoch
Visualization TLE readout
Latitude53.41159°
Longitude-61.32139°
Altitude35,046.582 km
Speed2.049 km/s
Apparent Right ascension11h 23m 14s
Apparent Declination55° 49' 37"
Sunlit
Object is in daylight
Visualization observer readout
Local Sidereal Time11:28:00
Azimuth357.562° N
Elevation74.07°
Doppler factor1
Orbital elements
Apogee altitude38,285.538 km
Perigee altitude1,916.862 km
Semi-major axis26,479.337 km
Eccentricity0.6867369
Inclination63.6377°
RAAN129.5711°
Arg. of periapsis258.9966°
True anomaly101.09379°
Mean anomaly22.938°
Eccentric anomaly55.27866°
Mean motion0.50371 °/min
BSTARUnknown
Orbital period714.69 mins
Loading maneuver chart data...
Loading historical data...
Loading historical data...
Loading historical data...
Loading historical data...
Loading historical data...
Loading historical data...
Loading historical data...
Other satellites on launch #31 in the year 2020 (2020-05-22 UTC)

FREGAT R/B Visibility forecast

Observer location: undefined°, undefined

Span
Click to sort rows by Start time (UTC) header in descending order
Start Az.
Max El. time (UTC)
Max El. Az.
Max El.
End time (UTC)
End Az.
443 mins2024-12-26 12:06:33.210Z357.559° N2024-12-26 18:26:33.210Z65.043° ENE44.069°2024-12-26 19:29:33.210Z142.625° SSE
219 mins2024-12-27 08:27:33.210Z172.523° S2024-12-27 10:29:33.210Z66.457° ENE44.796°2024-12-27 12:06:33.210Z359.848° N
|